Time,TemperatureF,DewpointF,PressureIn,WindDirection,WindDirectionDegrees,WindSpeedMPH,WindSpeedGustMPH,Humidity,HourlyPrecipIn,Conditions,Clouds,dailyrainin,SoftwareType,DateUTC
2013-01-15 00:00:00,48.0,48.0,30.06,WNW,292,3.0,14.0,100,0.00,,,0.00,Weather View 32 v70,2013-01-15 05:00:00,
2013-01-15 00:01:00,48.0,48.0,30.06,WSW,248,5.0,14.0,100,0.00,,,0.00,Weather View 32 v70,2013-01-15 05:01:00,
2013-01-15 00:02:00,49.0,49.0,30.06,West,270,3.0,14.0,100,0.00,,,0.00,Weather View 32 v70,2013-01-15 05:02:00,
2013-01-15 00:07:00,49.0,49.0,30.06,West,270,2.0,14.0,100,0.00,,,0.00,Weather View 32 v70,2013-01-15 05:07:00,
2013-01-15 00:12:00,49.0,49.0,30.05,WSW,248,3.0,11.0,100,0.00,,,0.00,Weather View 32 v70,2013-01-15 05:12:00,
2013-01-15 00:17:00,49.0,49.0,30.05,ENE,68,1.0,11.0,100,0.00,,,0.00,Weather View 32 v70,2013-01-15 05:17:00,
2013-01-15 00:22:00,49.0,49.0,30.05,WSW,248,2.0,11.0,100,0.00,,,0.00,Weather View 32 v70,2013-01-15 05:22:00,
2013-01-15 00:27:00,49.0,49.0,30.05,WNW,292,3.0,11.0,100,0.00,,,0.00,Weather View 32 v70,2013-01-15 05:27:00,
2013-01-15 00:32:00,50.0,50.0,30.05,NE,45,2.0,11.0,100,0.00,,,0.00,Weather View 32 v70,2013-01-15 05:32:00,
2013-01-15 00:37:00,50.0,50.0,30.05,WNW,292,3.0,11.0,100,0.00,,,0.00,Weather View 32 v70,2013-01-15 05:37:00,
2013-01-15 00:42:00,50.0,50.0,30.05,West,270,3.0,11.0,100,0.00,,,0.00,Weather View 32 v70,2013-01-15 05:42:00,
2013-01-15 00:47:00,50.0,50.0,30.05,SSW,202,5.0,11.0,100,0.00,,,0.00,Weather View 32 v70,2013-01-15 05:47:00,
2013-01-15 00:52:00,50.0,50.0,30.04,South,180,2.0,11.0,100,0.00,,,0.00,Weather View 32 v70,2013-01-15 05:52:00,
2013-01-15 00:57:00,50.0,50.0,30.04,SSE,158,2.0,9.0,100,0.00,,,0.00,Weather View 32 v70,2013-01-15 05:57:00,
2013-01-15 01:02:00,51.0,51.0,30.04,SSW,202,3.0,9.0,100,0.00,,,0.00,Weather View 32 v70,2013-01-15 06:02:00,
2013-01-15 01:07:00,51.0,51.0,30.04,SSW,202,2.0,9.0,100,0.00,,,0.00,Weather View 32 v70,2013-01-15 06:07:00,
2013-01-15 01:12:00,51.0,51.0,30.05,SSW,202,2.0,7.0,100,0.00,,,0.00,Weather View 32 v70,2013-01-15 06:12:00,
2013-01-15 01:17:00,51.0,51.0,30.05,SE,135,0.0,7.0,100,0.01,,,0.01,Weather View 32 v70,2013-01-15 06:17:00,
2013-01-15 01:22:00,51.0,51.0,30.04,South,180,1.0,7.0,100,0.01,,,0.01,Weather View 32 v70,2013-01-15 06:22:00,
2013-01-15 01:27:00,51.0,51.0,30.04,WNW,292,1.0,7.0,100,0.01,,,0.01,Weather View 32 v70,2013-01-15 06:27:00,
2013-01-15 01:32:00,51.0,51.0,30.04,West,270,1.0,7.0,100,0.01,,,0.01,Weather View 32 v70,2013-01-15 06:32:00,
2013-01-15 01:37:00,51.0,51.0,30.04,WSW,248,2.0,5.0,100,0.01,,,0.01,Weather View 32 v70,2013-01-15 06:37:00,
2013-01-15 01:42:00,51.0,51.0,30.04,WSW,248,2.0,5.0,100,0.01,,,0.01,Weather View 32 v70,2013-01-15 06:42:00,
2013-01-15 01:47:00,51.0,51.0,30.04,SSW,202,2.0,5.0,100,0.01,,,0.01,Weather View 32 v70,2013-01-15 06:47:00,
2013-01-15 01:52:00,51.0,51.0,30.04,SSW,202,1.0,5.0,100,0.01,,,0.01,Weather View 32 v70,2013-01-15 06:52:00,
2013-01-15 01:57:00,51.0,51.0,30.03,SSW,202,1.0,5.0,100,0.01,,,0.01,Weather View 32 v70,2013-01-15 06:57:00,
2013-01-15 02:02:00,51.0,51.0,30.03,WSW,248,1.0,5.0,100,0.01,,,0.01,Weather View 32 v70,2013-01-15 07:02:00,
2013-01-15 02:07:00,51.0,51.0,30.03,SSW,202,1.0,5.0,100,0.01,,,0.01,Weather View 32 v70,2013-01-15 07:07:00,
2013-01-15 02:12:00,51.0,51.0,30.03,SSW,202,1.0,5.0,100,0.01,,,0.01,Weather View 32 v70,2013-01-15 07:12:00,
2013-01-15 02:17:00,52.0,52.0,30.04,SE,135,0.0,5.0,100,0.00,,,0.01,Weather View 32 v70,2013-01-15 07:17:00,
2013-01-15 02:22:00,52.0,52.0,30.04,SE,135,0.0,5.0,100,0.00,,,0.01,Weather View 32 v70,2013-01-15 07:22:00,
2013-01-15 02:28:00,52.0,52.0,30.04,South,180,3.0,5.0,100,0.00,,,0.02,Weather View 32 v70,2013-01-15 07:28:00,
2013-01-15 02:33:00,52.0,52.0,30.03,ESE,112,0.0,4.0,100,0.13,,,0.02,Weather View 32 v70,2013-01-15 07:33:00,
2013-01-15 02:38:00,53.0,53.0,30.03,ESE,112,0.0,4.0,100,0.02,,,0.03,Weather View 32 v70,2013-01-15 07:38:00,
2013-01-15 02:43:00,53.0,53.0,30.03,WNW,292,0.0,3.0,100,0.02,,,0.03,Weather View 32 v70,2013-01-15 07:43:00,
2013-01-15 02:48:00,54.0,54.0,30.03,SE,135,0.0,3.0,100,0.03,,,0.04,Weather View 32 v70,2013-01-15 07:48:00,
2013-01-15 02:53:00,54.0,54.0,30.04,ENE,68,0.0,3.0,100,0.03,,,0.04,Weather View 32 v70,2013-01-15 07:53:00,
2013-01-15 02:58:00,55.0,55.0,30.03,ENE,68,0.0,3.0,100,0.03,,,0.04,Weather View 32 v70,2013-01-15 07:58:00,
2013-01-15 03:03:00,54.0,54.0,30.03,ESE,112,0.0,3.0,100,0.03,,,0.04,Weather View 32 v70,2013-01-15 08:03:00,
2013-01-15 03:08:00,54.0,54.0,30.03,SSE,158,1.0,3.0,100,0.03,,,0.04,Weather View 32 v70,2013-01-15 08:08:00,
2013-01-15 03:13:00,54.0,54.0,30.03,South,180,3.0,3.0,100,0.03,,,0.04,Weather View 32 v70,2013-01-15 08:13:00,
2013-01-15 03:18:00,54.0,54.0,30.02,East,90,1.0,4.0,100,0.03,,,0.04,Weather View 32 v70,2013-01-15 08:18:00,
2013-01-15 03:23:00,54.0,54.0,30.02,East,90,1.0,4.0,100,0.04,,,0.05,Weather View 32 v70,2013-01-15 08:23:00,
2013-01-15 03:28:00,53.0,53.0,30.02,ENE,68,1.0,4.0,100,0.03,,,0.05,Weather View 32 v70,2013-01-15 08:28:00,
2013-01-15 03:33:00,53.0,53.0,30.01,South,180,0.0,4.0,100,0.03,,,0.05,Weather View 32 v70,2013-01-15 08:33:00,
2013-01-15 03:38:00,53.0,53.0,30.01,SW,225,3.0,4.0,100,0.02,,,0.05,Weather View 32 v70,2013-01-15 08:38:00,
2013-01-15 03:43:00,53.0,53.0,30.00,SSW,202,2.0,4.0,100,0.02,,,0.05,Weather View 32 v70,2013-01-15 08:43:00,
2013-01-15 03:48:00,52.0,52.0,30.01,SSW,202,4.0,5.0,100,0.01,,,0.05,Weather View 32 v70,2013-01-15 08:48:00,
2013-01-15 03:53:00,52.0,52.0,30.01,SW,225,3.0,5.0,100,0.01,,,0.05,Weather View 32 v70,2013-01-15 08:53:00,
2013-01-15 03:58:00,54.0,54.0,30.01,ENE,68,0.0,5.0,100,0.01,,,0.05,Weather View 32 v70,2013-01-15 08:58:00,
2013-01-15 04:03:00,55.0,55.0,30.01,WNW,292,1.0,5.0,100,0.02,,,0.06,Weather View 32 v70,2013-01-15 09:03:00,
2013-01-15 04:08:00,56.0,56.0,30.01,East,90,0.0,5.0,100,0.02,,,0.06,Weather View 32 v70,2013-01-15 09:08:00,
2013-01-15 04:13:00,56.0,56.0,30.01,East,90,1.0,5.0,100,0.02,,,0.06,Weather View 32 v70,2013-01-15 09:13:00,
2013-01-15 04:18:00,56.0,56.0,30.01,ENE,68,3.0,5.0,100,0.02,,,0.06,Weather View 32 v70,2013-01-15 09:18:00,
2013-01-15 04:23:00,56.0,56.0,30.01,ESE,112,1.0,5.0,100,0.01,,,0.06,Weather View 32 v70,2013-01-15 09:23:00,
2013-01-15 04:28:00,55.0,55.0,30.00,ENE,68,0.0,5.0,100,0.02,,,0.07,Weather View 32 v70,2013-01-15 09:28:00,
2013-01-15 04:33:00,55.0,55.0,30.00,ENE,68,1.0,5.0,100,0.02,,,0.07,Weather View 32 v70,2013-01-15 09:33:00,
2013-01-15 04:38:00,55.0,55.0,29.99,West,270,0.0,5.0,100,0.02,,,0.07,Weather View 32 v70,2013-01-15 09:38:00,
2013-01-15 04:43:00,55.0,55.0,29.99,NNE,22,1.0,5.0,100,0.02,,,0.07,Weather View 32 v70,2013-01-15 09:43:00,
2013-01-15 04:48:00,54.0,54.0,29.99,NE,45,1.0,5.0,100,0.02,,,0.07,Weather View 32 v70,2013-01-15 09:48:00,
2013-01-15 04:53:00,54.0,54.0,30.00,ESE,112,0.0,5.0,100,0.02,,,0.07,Weather View 32 v70,2013-01-15 09:53:00,
2013-01-15 04:58:00,54.0,54.0,30.00,ENE,68,0.0,5.0,100,0.03,,,0.08,Weather View 32 v70,2013-01-15 09:58:00,
2013-01-15 05:03:00,54.0,54.0,30.00,SE,135,0.0,5.0,100,0.02,,,0.08,Weather View 32 v70,2013-01-15 10:03:00,
2013-01-15 05:08:00,54.0,54.0,30.00,ENE,68,2.0,5.0,100,0.02,,,0.08,Weather View 32 v70,2013-01-15 10:08:00,
2013-01-15 05:13:00,54.0,54.0,30.00,ENE,68,0.0,5.0,100,0.02,,,0.08,Weather View 32 v70,2013-01-15 10:13:00,
2013-01-15 05:18:00,54.0,54.0,29.99,East,90,0.0,5.0,100,0.03,,,0.09,Weather View 32 v70,2013-01-15 10:18:00,
2013-01-15 05:23:00,54.0,54.0,29.99,ESE,112,0.0,5.0,100,0.03,,,0.09,Weather View 32 v70,2013-01-15 10:23:00,
2013-01-15 05:28:00,54.0,54.0,29.99,NE,45,1.0,5.0,100,0.02,,,0.09,Weather View 32 v70,2013-01-15 10:28:00,
2013-01-15 05:33:00,54.0,54.0,30.00,SSE,158,1.0,5.0,100,0.02,,,0.09,Weather View 32 v70,2013-01-15 10:33:00,
2013-01-15 05:38:00,54.0,54.0,30.00,East,90,1.0,5.0,100,0.02,,,0.10,Weather View 32 v70,2013-01-15 10:38:00,
2013-01-15 05:43:00,54.0,54.0,30.00,North,0,2.0,5.0,100,0.03,,,0.10,Weather View 32 v70,2013-01-15 10:43:00,
2013-01-15 05:48:00,54.0,54.0,30.00,SSW,202,0.0,4.0,100,0.03,,,0.10,Weather View 32 v70,2013-01-15 10:48:00,
2013-01-15 05:53:00,54.0,54.0,30.00,East,90,0.0,4.0,100,0.04,,,0.11,Weather View 32 v70,2013-01-15 10:53:00,
2013-01-15 05:58:00,54.0,54.0,30.00,NNE,22,1.0,4.0,100,0.03,,,0.11,Weather View 32 v70,2013-01-15 10:58:00,
2013-01-15 06:03:00,54.0,54.0,30.01,East,90,0.0,4.0,100,0.04,,,0.13,Weather View 32 v70,2013-01-15 11:03:00,
2013-01-15 06:08:00,54.0,54.0,30.01,ENE,68,0.0,4.0,100,0.06,,,0.14,Weather View 32 v70,2013-01-15 11:08:00,
2013-01-15 06:13:00,54.0,54.0,30.01,WNW,292,0.0,4.0,100,0.07,,,0.15,Weather View 32 v70,2013-01-15 11:13:00,
2013-01-15 06:18:00,54.0,54.0,30.01,East,90,0.0,4.0,100,0.07,,,0.17,Weather View 32 v70,2013-01-15 11:18:00,
2013-01-15 06:23:00,54.0,54.0,30.01,ENE,68,2.0,4.0,100,0.08,,,0.17,Weather View 32 v70,2013-01-15 11:23:00,
2013-01-15 06:28:00,54.0,54.0,30.02,ENE,68,0.0,4.0,100,0.08,,,0.17,Weather View 32 v70,2013-01-15 11:28:00,
2013-01-15 06:33:00,54.0,54.0,30.02,SE,135,1.0,5.0,100,0.08,,,0.18,Weather View 32 v70,2013-01-15 11:33:00,
2013-01-15 06:38:00,54.0,54.0,30.02,SSW,202,6.0,6.0,100,0.12,,,0.21,Weather View 32 v70,2013-01-15 11:38:00,
2013-01-15 06:43:00,54.0,54.0,30.02,South,180,2.0,6.0,100,0.12,,,0.23,Weather View 32 v70,2013-01-15 11:43:00,
2013-01-15 06:48:00,54.0,54.0,30.02,South,180,9.0,9.0,100,0.13,,,0.23,Weather View 32 v70,2013-01-15 11:48:00,
2013-01-15 06:53:00,54.0,54.0,30.02,SE,135,1.0,10.0,100,0.14,,,0.26,Weather View 32 v70,2013-01-15 11:53:00,
2013-01-15 06:58:00,54.0,54.0,30.02,ESE,112,1.0,10.0,100,0.16,,,0.27,Weather View 32 v70,2013-01-15 11:58:00,
2013-01-15 07:03:00,54.0,54.0,30.02,East,90,1.0,10.0,100,0.16,,,0.28,Weather View 32 v70,2013-01-15 12:03:00,
2013-01-15 07:08:00,54.0,54.0,30.02,ENE,68,1.0,10.0,100,0.15,,,0.29,Weather View 32 v70,2013-01-15 12:08:00,
2013-01-15 07:14:00,54.0,54.0,30.02,SE,135,0.0,10.0,100,0.14,,,0.29,Weather View 32 v70,2013-01-15 12:14:00,
2013-01-15 07:19:00,54.0,54.0,30.02,NE,45,0.0,10.0,100,0.14,,,0.30,Weather View 32 v70,2013-01-15 12:19:00,
2013-01-15 07:24:00,54.0,54.0,30.03,East,90,1.0,10.0,100,0.13,,,0.30,Weather View 32 v70,2013-01-15 12:24:00,
2013-01-15 07:29:00,54.0,54.0,30.04,East,90,1.0,10.0,100,0.13,,,0.30,Weather View 32 v70,2013-01-15 12:29:00,
2013-01-15 07:34:00,54.0,54.0,30.04,East,90,1.0,10.0,100,0.13,,,0.31,Weather View 32 v70,2013-01-15 12:34:00,
2013-01-15 07:39:00,54.0,54.0,30.04,ESE,112,0.0,10.0,100,0.11,,,0.32,Weather View 32 v70,2013-01-15 12:39:00,
2013-01-15 07:44:00,54.0,54.0,30.04,ESE,112,1.0,10.0,100,0.10,,,0.33,Weather View 32 v70,2013-01-15 12:44:00,
2013-01-15 07:49:00,54.0,54.0,30.04,ESE,112,1.0,10.0,100,0.10,,,0.33,Weather View 32 v70,2013-01-15 12:49:00,
2013-01-15 07:54:00,54.0,54.0,30.04,ESE,112,1.0,6.0,100,0.08,,,0.34,Weather View 32 v70,2013-01-15 12:54:00,
2013-01-15 07:59:00,54.0,54.0,30.05,SSW,202,2.0,5.0,100,0.08,,,0.35,Weather View 32 v70,2013-01-15 12:59:00,
2013-01-15 08:04:00,54.0,54.0,30.05,ESE,112,3.0,5.0,100,0.08,,,0.36,Weather View 32 v70,2013-01-15 13:04:00,
2013-01-15 08:09:00,53.0,53.0,30.05,SE,135,3.0,6.0,100,0.08,,,0.37,Weather View 32 v70,2013-01-15 13:09:00,
2013-01-15 08:14:00,53.0,53.0,30.04,SE,135,5.0,6.0,100,0.08,,,0.37,Weather View 32 v70,2013-01-15 13:14:00,
2013-01-15 08:19:00,53.0,53.0,30.04,ESE,112,3.0,8.0,100,0.07,,,0.37,Weather View 32 v70,2013-01-15 13:19:00,
2013-01-15 08:24:00,53.0,53.0,30.04,South,180,3.0,8.0,100,0.08,,,0.38,Weather View 32 v70,2013-01-15 13:24:00,
2013-01-15 08:29:00,54.0,54.0,30.05,East,90,1.0,8.0,100,0.08,,,0.38,Weather View 32 v70,2013-01-15 13:29:00,
2013-01-15 08:34:00,54.0,54.0,30.05,NE,45,0.0,8.0,100,0.08,,,0.39,Weather View 32 v70,2013-01-15 13:34:00,
2013-01-15 08:39:00,54.0,54.0,30.05,East,90,0.0,8.0,100,0.07,,,0.39,Weather View 32 v70,2013-01-15 13:39:00,
2013-01-15 08:44:00,54.0,54.0,30.05,ESE,112,0.0,8.0,100,0.07,,,0.40,Weather View 32 v70,2013-01-15 13:44:00,
2013-01-15 08:49:00,54.0,54.0,30.05,NNE,22,3.0,8.0,100,0.08,,,0.41,Weather View 32 v70,2013-01-15 13:49:00,
2013-01-15 08:54:00,54.0,54.0,30.05,SE,135,1.0,8.0,100,0.07,,,0.41,Weather View 32 v70,2013-01-15 13:54:00,
2013-01-15 08:59:00,54.0,54.0,30.05,ENE,68,3.0,8.0,100,0.06,,,0.41,Weather View 32 v70,2013-01-15 13:59:00,
2013-01-15 09:04:00,54.0,54.0,30.05,East,90,0.0,8.0,100,0.05,,,0.41,Weather View 32 v70,2013-01-15 14:04:00,
2013-01-15 09:09:00,54.0,54.0,30.05,North,0,1.0,8.0,100,0.04,,,0.41,Weather View 32 v70,2013-01-15 14:09:00,
2013-01-15 09:14:00,53.0,53.0,30.04,North,0,1.0,8.0,100,0.04,,,0.41,Weather View 32 v70,2013-01-15 14:14:00,
2013-01-15 09:19:00,53.0,53.0,30.05,North,0,0.0,8.0,100,0.05,,,0.42,Weather View 32 v70,2013-01-15 14:19:00,
2013-01-15 09:24:00,53.0,53.0,30.05,ESE,112,2.0,8.0,100,0.04,,,0.42,Weather View 32 v70,2013-01-15 14:24:00,
2013-01-15 09:29:00,53.0,53.0,30.04,NW,315,2.0,6.0,100,0.05,,,0.43,Weather View 32 v70,2013-01-15 14:29:00,
2013-01-15 09:34:00,53.0,53.0,30.04,NNE,22,1.0,6.0,100,0.04,,,0.43,Weather View 32 v70,2013-01-15 14:34:00,
2013-01-15 09:39:00,53.0,53.0,30.05,ENE,68,1.0,6.0,100,0.04,,,0.43,Weather View 32 v70,2013-01-15 14:39:00,
2013-01-15 09:44:00,53.0,53.0,30.04,East,90,1.0,6.0,100,0.03,,,0.43,Weather View 32 v70,2013-01-15 14:44:00,
2013-01-15 09:49:00,54.0,54.0,30.05,East,90,0.0,6.0,100,0.02,,,0.43,Weather View 32 v70,2013-01-15 14:49:00,
2013-01-15 09:54:00,53.0,53.0,30.05,ENE,68,1.0,6.0,100,0.02,,,0.43,Weather View 32 v70,2013-01-15 14:54:00,
2013-01-15 09:59:00,53.0,53.0,30.05,ENE,68,1.0,6.0,100,0.02,,,0.43,Weather View 32 v70,2013-01-15 14:59:00,
2013-01-15 10:04:00,53.0,53.0,30.04,NNE,22,1.0,6.0,100,0.02,,,0.43,Weather View 32 v70,2013-01-15 15:04:00,
2013-01-15 10:09:00,53.0,53.0,30.05,East,90,0.0,6.0,100,0.02,,,0.43,Weather View 32 v70,2013-01-15 15:09:00,
2013-01-15 10:14:00,53.0,53.0,30.04,ENE,68,4.0,6.0,100,0.02,,,0.43,Weather View 32 v70,2013-01-15 15:14:00,
2013-01-15 10:19:00,53.0,53.0,30.05,NNE,22,4.0,6.0,100,0.03,,,0.45,Weather View 32 v70,2013-01-15 15:19:00,
2013-01-15 10:24:00,53.0,53.0,30.05,North,0,1.0,6.0,100,0.03,,,0.45,Weather View 32 v70,2013-01-15 15:24:00,
2013-01-15 10:29:00,53.0,53.0,30.05,NNE,22,3.0,6.0,100,0.02,,,0.45,Weather View 32 v70,2013-01-15 15:29:00,
2013-01-15 10:34:00,52.0,52.0,30.05,ENE,68,2.0,6.0,100,0.02,,,0.45,Weather View 32 v70,2013-01-15 15:34:00,
2013-01-15 10:39:00,52.0,52.0,30.05,NE,45,2.0,6.0,100,0.02,,,0.45,Weather View 32 v70,2013-01-15 15:39:00,
2013-01-15 10:44:00,52.0,52.0,30.05,ENE,68,2.0,6.0,100,0.03,,,0.46,Weather View 32 v70,2013-01-15 15:44:00,
2013-01-15 10:50:00,52.0,52.0,30.04,NE,45,3.0,6.0,100,0.04,,,0.47,Weather View 32 v70,2013-01-15 15:50:00,
2013-01-15 10:55:00,52.0,52.0,30.04,NE,45,2.0,6.0,100,0.04,,,0.47,Weather View 32 v70,2013-01-15 15:55:00,
2013-01-15 10:59:00,52.0,52.0,30.04,NNE,22,4.0,6.0,100,0.04,,,0.47,Weather View 32 v70,2013-01-15 15:59:00,
2013-01-15 11:04:00,52.0,52.0,30.04,North,0,3.0,6.0,100,0.04,,,0.47,Weather View 32 v70,2013-01-15 16:04:00,
2013-01-15 11:09:00,52.0,52.0,30.03,North,0,3.0,6.0,100,0.04,,,0.48,Weather View 32 v70,2013-01-15 16:09:00,
2013-01-15 11:15:00,52.0,52.0,30.04,NE,45,4.0,6.0,100,0.05,,,0.48,Weather View 32 v70,2013-01-15 16:15:00,
2013-01-15 11:20:00,52.0,52.0,30.03,NNE,22,4.0,6.0,100,0.03,,,0.48,Weather View 32 v70,2013-01-15 16:20:00,
2013-01-15 11:25:00,52.0,52.0,30.03,NE,45,2.0,6.0,100,0.03,,,0.48,Weather View 32 v70,2013-01-15 16:25:00,
2013-01-15 11:30:00,52.0,52.0,30.03,East,90,1.0,6.0,100,-0.05,,,0.48,Weather View 32 v70,2013-01-15 16:30:00,
2013-01-15 11:35:00,52.0,52.0,30.02,NNE,22,3.0,6.0,100,0.03,,,0.48,Weather View 32 v70,2013-01-15 16:35:00,
2013-01-15 11:40:00,52.0,52.0,30.03,SSW,202,1.0,6.0,100,0.03,,,0.48,Weather View 32 v70,2013-01-15 16:40:00,
2013-01-15 11:45:00,52.0,52.0,30.02,NNE,22,4.0,6.0,100,0.02,,,0.48,Weather View 32 v70,2013-01-15 16:45:00,
2013-01-15 11:50:00,52.0,52.0,30.02,WNW,292,4.0,6.0,100,0.01,,,0.48,Weather View 32 v70,2013-01-15 16:50:00,
2013-01-15 11:55:00,52.0,52.0,30.02,ESE,112,6.0,6.0,100,0.01,,,0.48,Weather View 32 v70,2013-01-15 16:55:00,
2013-01-15 12:00:00,52.0,52.0,30.02,NE,45,3.0,6.0,100,0.02,,,0.49,Weather View 32 v70,2013-01-15 17:00:00,
2013-01-15 12:05:00,52.0,52.0,30.02,NNE,22,1.0,6.0,100,0.02,,,0.49,Weather View 32 v70,2013-01-15 17:05:00,
2013-01-15 12:10:00,52.0,52.0,30.01,NE,45,3.0,6.0,100,0.01,,,0.49,Weather View 32 v70,2013-01-15 17:10:00,
2013-01-15 12:15:00,52.0,52.0,30.01,ENE,68,2.0,6.0,100,0.01,,,0.49,Weather View 32 v70,2013-01-15 17:15:00,
2013-01-15 12:20:00,52.0,52.0,30.01,ENE,68,1.0,6.0,100,0.02,,,0.50,Weather View 32 v70,2013-01-15 17:20:00,
2013-01-15 12:25:00,52.0,52.0,30.00,ENE,68,1.0,6.0,100,0.02,,,0.50,Weather View 32 v70,2013-01-15 17:25:00,
2013-01-15 12:30:00,52.0,52.0,30.00,ENE,68,3.0,6.0,100,0.02,,,0.50,Weather View 32 v70,2013-01-15 17:30:00,
2013-01-15 12:35:00,52.0,52.0,30.00,NE,45,1.0,6.0,100,0.02,,,0.50,Weather View 32 v70,2013-01-15 17:35:00,
2013-01-15 12:40:00,52.0,52.0,29.99,NNE,22,3.0,6.0,100,0.02,,,0.50,Weather View 32 v70,2013-01-15 17:40:00,
2013-01-15 12:45:00,52.0,52.0,30.00,East,90,1.0,6.0,100,0.03,,,0.51,Weather View 32 v70,2013-01-15 17:45:00,
2013-01-15 12:50:00,52.0,52.0,30.00,NNE,22,3.0,6.0,100,0.03,,,0.51,Weather View 32 v70,2013-01-15 17:50:00,
2013-01-15 12:55:00,52.0,52.0,29.99,NE,45,3.0,6.0,100,0.03,,,0.51,Weather View 32 v70,2013-01-15 17:55:00,
2013-01-15 13:00:00,52.0,52.0,29.98,North,0,1.0,5.0,100,0.02,,,0.51,Weather View 32 v70,2013-01-15 18:00:00,
2013-01-15 13:05:00,52.0,52.0,29.98,NE,45,2.0,5.0,100,0.02,,,0.51,Weather View 32 v70,2013-01-15 18:05:00,
2013-01-15 13:10:00,52.0,52.0,29.98,ENE,68,1.0,5.0,100,0.02,,,0.51,Weather View 32 v70,2013-01-15 18:10:00,
2013-01-15 13:15:00,51.0,51.0,29.98,NNW,338,1.0,5.0,100,0.03,,,0.52,Weather View 32 v70,2013-01-15 18:15:00,
2013-01-15 13:20:00,51.0,51.0,29.98,North,0,3.0,5.0,100,0.03,,,0.53,Weather View 32 v70,2013-01-15 18:20:00,
2013-01-15 13:25:00,51.0,51.0,29.98,NE,45,2.0,5.0,100,0.03,,,0.53,Weather View 32 v70,2013-01-15 18:25:00,
2013-01-15 13:30:00,51.0,51.0,29.98,NNE,22,3.0,5.0,100,0.03,,,0.53,Weather View 32 v70,2013-01-15 18:30:00,
2013-01-15 13:35:00,51.0,51.0,29.97,NE,45,2.0,6.0,100,0.03,,,0.53,Weather View 32 v70,2013-01-15 18:35:00,
2013-01-15 13:40:00,51.0,51.0,29.97,NE,45,4.0,6.0,100,0.04,,,0.54,Weather View 32 v70,2013-01-15 18:40:00,
2013-01-15 13:45:00,51.0,51.0,29.97,NNE,22,1.0,6.0,100,0.04,,,0.55,Weather View 32 v70,2013-01-15 18:45:00,
2013-01-15 13:50:00,51.0,51.0,29.97,NW,315,3.0,6.0,100,0.05,,,0.56,Weather View 32 v70,2013-01-15 18:50:00,
2013-01-15 13:55:00,51.0,51.0,29.96,ENE,68,1.0,6.0,100,0.06,,,0.57,Weather View 32 v70,2013-01-15 18:55:00,
2013-01-15 14:00:00,51.0,51.0,29.96,ENE,68,1.0,6.0,100,0.06,,,0.57,Weather View 32 v70,2013-01-15 19:00:00,
2013-01-15 14:05:00,51.0,51.0,29.96,SW,225,2.0,6.0,100,0.06,,,0.57,Weather View 32 v70,2013-01-15 19:05:00,
2013-01-15 14:10:00,51.0,51.0,29.96,ENE,68,2.0,6.0,100,0.06,,,0.57,Weather View 32 v70,2013-01-15 19:10:00,
2013-01-15 14:15:00,51.0,51.0,29.96,ENE,68,0.0,6.0,100,0.05,,,0.57,Weather View 32 v70,2013-01-15 19:15:00,
2013-01-15 14:20:00,51.0,51.0,29.96,NE,45,2.0,6.0,100,0.05,,,0.58,Weather View 32 v70,2013-01-15 19:20:00,
2013-01-15 14:25:00,51.0,51.0,29.96,East,90,0.0,6.0,100,0.05,,,0.58,Weather View 32 v70,2013-01-15 19:25:00,
2013-01-15 14:30:00,51.0,51.0,29.96,NNE,22,2.0,6.0,100,0.05,,,0.58,Weather View 32 v70,2013-01-15 19:30:00,
2013-01-15 14:35:00,51.0,51.0,29.96,ESE,112,1.0,6.0,100,0.05,,,0.58,Weather View 32 v70,2013-01-15 19:35:00,
2013-01-15 14:40:00,51.0,51.0,29.95,NW,315,2.0,6.0,100,0.05,,,0.59,Weather View 32 v70,2013-01-15 19:40:00,
2013-01-15 14:45:00,51.0,51.0,29.96,North,0,2.0,6.0,100,0.04,,,0.59,Weather View 32 v70,2013-01-15 19:45:00,
2013-01-15 14:50:00,51.0,51.0,29.96,NNE,22,1.0,6.0,100,0.03,,,0.59,Weather View 32 v70,2013-01-15 19:50:00,
2013-01-15 14:55:00,51.0,51.0,29.96,West,270,1.0,4.0,100,0.02,,,0.59,Weather View 32 v70,2013-01-15 19:55:00,
2013-01-15 15:00:00,51.0,51.0,29.96,East,90,0.0,4.0,100,0.02,,,0.59,Weather View 32 v70,2013-01-15 20:00:00,
2013-01-15 15:05:00,51.0,51.0,29.96,ENE,68,3.0,4.0,100,0.03,,,0.60,Weather View 32 v70,2013-01-15 20:05:00,
2013-01-15 15:10:00,51.0,51.0,29.96,East,90,1.0,4.0,100,0.03,,,0.60,Weather View 32 v70,2013-01-15 20:10:00,
2013-01-15 15:15:00,51.0,51.0,29.96,ENE,68,2.0,4.0,100,0.03,,,0.60,Weather View 32 v70,2013-01-15 20:15:00,
2013-01-15 15:20:00,51.0,51.0,29.95,NNE,22,3.0,5.0,100,0.02,,,0.60,Weather View 32 v70,2013-01-15 20:20:00,
2013-01-15 15:25:00,51.0,51.0,29.95,ENE,68,3.0,6.0,100,0.03,,,0.61,Weather View 32 v70,2013-01-15 20:25:00,
2013-01-15 15:30:00,51.0,51.0,29.96,NNW,338,2.0,7.0,100,0.04,,,0.62,Weather View 32 v70,2013-01-15 20:30:00,
2013-01-15 15:35:00,50.0,50.0,29.96,ENE,68,3.0,7.0,100,0.04,,,0.62,Weather View 32 v70,2013-01-15 20:35:00,
2013-01-15 15:40:00,50.0,50.0,29.96,NE,45,4.0,7.0,100,0.04,,,0.63,Weather View 32 v70,2013-01-15 20:40:00,
2013-01-15 15:45:00,50.0,50.0,29.95,NNW,338,3.0,7.0,100,0.04,,,0.63,Weather View 32 v70,2013-01-15 20:45:00,
2013-01-15 15:50:00,50.0,50.0,29.96,ENE,68,2.0,7.0,100,0.05,,,0.64,Weather View 32 v70,2013-01-15 20:50:00,
2013-01-15 15:55:00,50.0,50.0,29.96,NE,45,3.0,7.0,100,0.06,,,0.65,Weather View 32 v70,2013-01-15 20:55:00,
2013-01-15 16:00:00,50.0,50.0,29.96,NE,45,1.0,7.0,100,0.07,,,0.66,Weather View 32 v70,2013-01-15 21:00:00,
2013-01-15 16:05:00,50.0,50.0,29.96,WNW,292,2.0,7.0,100,0.06,,,0.66,Weather View 32 v70,2013-01-15 21:05:00,
2013-01-15 16:10:00,50.0,50.0,29.97,SE,135,0.0,7.0,100,0.07,,,0.67,Weather View 32 v70,2013-01-15 21:10:00,
2013-01-15 16:15:00,50.0,50.0,29.97,SE,135,0.0,7.0,100,0.07,,,0.67,Weather View 32 v70,2013-01-15 21:15:00,
2013-01-15 16:20:00,49.0,49.0,29.97,SE,135,1.0,7.0,100,0.08,,,0.68,Weather View 32 v70,2013-01-15 21:20:00,
2013-01-15 16:25:00,49.0,49.0,29.97,NE,45,3.0,7.0,100,0.08,,,0.69,Weather View 32 v70,2013-01-15 21:25:00,
2013-01-15 16:30:00,49.0,49.0,29.96,East,90,3.0,6.0,100,0.09,,,0.71,Weather View 32 v70,2013-01-15 21:30:00,
2013-01-15 16:35:00,49.0,49.0,29.97,North,0,1.0,6.0,100,0.09,,,0.71,Weather View 32 v70,2013-01-15 21:35:00,
2013-01-15 16:40:00,49.0,49.0,29.97,ESE,112,0.0,6.0,100,0.09,,,0.72,Weather View 32 v70,2013-01-15 21:40:00,
2013-01-15 16:46:00,49.0,49.0,29.97,NE,45,1.0,5.0,100,0.10,,,0.73,Weather View 32 v70,2013-01-15 21:46:00,
2013-01-15 16:51:00,49.0,49.0,29.96,NE,45,5.0,6.0,100,0.09,,,0.74,Weather View 32 v70,2013-01-15 21:51:00,
2013-01-15 16:56:00,49.0,49.0,29.96,SE,135,1.0,7.0,100,0.09,,,0.75,Weather View 32 v70,2013-01-15 21:56:00,
2013-01-15 17:01:00,48.0,48.0,29.96,ENE,68,1.0,7.0,100,-0.18,,,0.75,Weather View 32 v70,2013-01-15 22:01:00,
2013-01-15 17:06:00,48.0,48.0,29.96,ENE,68,1.0,7.0,100,-0.18,,,0.77,Weather View 32 v70,2013-01-15 22:06:00,
2013-01-15 17:11:00,48.0,48.0,29.96,North,0,3.0,7.0,100,0.10,,,0.77,Weather View 32 v70,2013-01-15 22:11:00,
2013-01-15 17:16:00,48.0,48.0,29.96,SSE,158,0.0,7.0,100,0.10,,,0.77,Weather View 32 v70,2013-01-15 22:16:00,
2013-01-15 17:21:00,48.0,48.0,29.96,NW,315,3.0,7.0,100,0.10,,,0.78,Weather View 32 v70,2013-01-15 22:21:00,
2013-01-15 17:26:00,48.0,48.0,29.97,SW,225,2.0,7.0,100,0.10,,,0.79,Weather View 32 v70,2013-01-15 22:26:00,
2013-01-15 17:31:00,48.0,48.0,29.97,NE,45,2.0,7.0,100,0.08,,,0.79,Weather View 32 v70,2013-01-15 22:31:00,
2013-01-15 17:36:00,48.0,48.0,29.96,ESE,112,0.0,7.0,100,0.09,,,0.80,Weather View 32 v70,2013-01-15 22:36:00,
2013-01-15 17:41:00,48.0,48.0,29.97,North,0,1.0,7.0,100,0.09,,,0.81,Weather View 32 v70,2013-01-15 22:41:00,
2013-01-15 17:46:00,48.0,48.0,29.97,NNE,22,1.0,7.0,100,0.08,,,0.81,Weather View 32 v70,2013-01-15 22:46:00,
2013-01-15 17:51:00,48.0,48.0,29.97,ENE,68,3.0,7.0,100,0.08,,,0.82,Weather View 32 v70,2013-01-15 22:51:00,
2013-01-15 17:56:00,47.0,47.0,29.97,NNW,338,1.0,5.0,100,0.07,,,0.82,Weather View 32 v70,2013-01-15 22:56:00,
2013-01-15 18:01:00,47.0,47.0,29.97,NNE,22,0.0,5.0,100,0.07,,,0.82,Weather View 32 v70,2013-01-15 23:01:00,
2013-01-15 18:06:00,47.0,47.0,29.97,ESE,112,0.0,5.0,100,0.05,,,0.82,Weather View 32 v70,2013-01-15 23:06:00,
2013-01-15 18:11:00,47.0,47.0,29.97,SSE,158,2.0,5.0,100,0.07,,,0.84,Weather View 32 v70,2013-01-15 23:11:00,
2013-01-15 18:16:00,47.0,47.0,29.97,North,0,1.0,5.0,100,0.09,,,0.86,Weather View 32 v70,2013-01-15 23:16:00,
2013-01-15 18:21:00,47.0,47.0,29.98,North,0,0.0,5.0,100,0.10,,,0.88,Weather View 32 v70,2013-01-15 23:21:00,
2013-01-15 18:26:00,47.0,47.0,29.98,ENE,68,3.0,6.0,100,0.10,,,0.89,Weather View 32 v70,2013-01-15 23:26:00,
2013-01-15 18:31:00,47.0,47.0,29.98,North,0,4.0,6.0,100,0.10,,,0.89,Weather View 32 v70,2013-01-15 23:31:00,
2013-01-15 18:36:00,47.0,47.0,29.98,East,90,2.0,6.0,100,0.09,,,0.89,Weather View 32 v70,2013-01-15 23:36:00,
2013-01-15 18:41:00,48.0,48.0,29.98,NE,45,1.0,6.0,100,0.09,,,0.90,Weather View 32 v70,2013-01-15 23:41:00,
2013-01-15 18:46:00,47.0,47.0,29.98,NW,315,1.0,6.0,100,0.09,,,0.90,Weather View 32 v70,2013-01-15 23:46:00,
2013-01-15 18:51:00,47.0,47.0,29.98,ENE,68,1.0,6.0,100,0.09,,,0.91,Weather View 32 v70,2013-01-15 23:51:00,
2013-01-15 18:56:00,47.0,47.0,29.98,NW,315,1.0,6.0,100,0.10,,,0.92,Weather View 32 v70,2013-01-15 23:56:00,
2013-01-15 19:01:00,46.0,46.0,29.97,NE,45,2.0,6.0,100,0.10,,,0.92,Weather View 32 v70,2013-01-16 00:01:00,
2013-01-15 19:06:00,47.0,47.0,29.97,WNW,292,1.0,6.0,100,0.11,,,0.93,Weather View 32 v70,2013-01-16 00:06:00,
2013-01-15 19:11:00,46.0,46.0,29.97,ENE,68,1.0,6.0,100,0.10,,,0.94,Weather View 32 v70,2013-01-16 00:11:00,
2013-01-15 19:16:00,46.0,46.0,29.98,East,90,0.0,6.0,100,0.08,,,0.94,Weather View 32 v70,2013-01-16 00:16:00,
2013-01-15 19:21:00,46.0,46.0,29.97,NNE,22,1.0,6.0,100,0.07,,,0.95,Weather View 32 v70,2013-01-16 00:21:00,
2013-01-15 19:26:00,46.0,46.0,29.97,ENE,68,1.0,5.0,100,0.07,,,0.96,Weather View 32 v70,2013-01-16 00:26:00,
2013-01-15 19:31:00,46.0,46.0,29.97,NE,45,1.0,5.0,100,0.07,,,0.96,Weather View 32 v70,2013-01-16 00:31:00,
2013-01-15 19:36:00,46.0,46.0,29.97,West,270,3.0,5.0,100,0.07,,,0.96,Weather View 32 v70,2013-01-16 00:36:00,
2013-01-15 19:41:00,46.0,46.0,29.97,North,0,0.0,5.0,100,0.07,,,0.98,Weather View 32 v70,2013-01-16 00:41:00,
2013-01-15 19:46:00,46.0,46.0,29.96,NE,45,1.0,5.0,100,0.09,,,0.99,Weather View 32 v70,2013-01-16 00:46:00,
2013-01-15 19:51:00,46.0,46.0,29.96,NNW,338,1.0,5.0,100,0.09,,,1.00,Weather View 32 v70,2013-01-16 00:51:00,
2013-01-15 19:56:00,46.0,46.0,29.96,NE,45,3.0,5.0,100,0.08,,,1.00,Weather View 32 v70,2013-01-16 00:56:00,
2013-01-15 20:01:00,46.0,46.0,29.96,ENE,68,1.0,5.0,100,0.08,,,1.00,Weather View 32 v70,2013-01-16 01:01:00,
2013-01-15 20:06:00,46.0,46.0,29.95,ENE,68,3.0,5.0,100,0.08,,,1.01,Weather View 32 v70,2013-01-16 01:06:00,
2013-01-15 20:11:00,46.0,46.0,29.95,ENE,68,2.0,5.0,100,0.07,,,1.01,Weather View 32 v70,2013-01-16 01:11:00,
2013-01-15 20:16:00,46.0,46.0,29.95,East,90,1.0,5.0,100,0.07,,,1.01,Weather View 32 v70,2013-01-16 01:16:00,
2013-01-15 20:21:00,46.0,46.0,29.95,ENE,68,2.0,5.0,100,0.06,,,1.01,Weather View 32 v70,2013-01-16 01:21:00,
2013-01-15 20:26:00,45.0,45.0,29.95,NE,45,1.0,5.0,100,0.06,,,1.02,Weather View 32 v70,2013-01-16 01:26:00,
2013-01-15 20:31:00,45.0,45.0,29.95,ENE,68,1.0,5.0,100,0.06,,,1.02,Weather View 32 v70,2013-01-16 01:31:00,
2013-01-15 20:36:00,45.0,45.0,29.95,SSW,202,1.0,5.0,100,0.06,,,1.02,Weather View 32 v70,2013-01-16 01:36:00,
2013-01-15 20:41:00,45.0,45.0,29.95,NNE,22,3.0,5.0,100,0.06,,,1.03,Weather View 32 v70,2013-01-16 01:41:00,
2013-01-15 20:46:00,45.0,45.0,29.95,ENE,68,2.0,5.0,100,0.04,,,1.03,Weather View 32 v70,2013-01-16 01:46:00,
2013-01-15 20:52:00,45.0,45.0,29.94,NNE,22,3.0,5.0,100,0.03,,,1.03,Weather View 32 v70,2013-01-16 01:52:00,
2013-01-15 20:57:00,45.0,45.0,29.94,ENE,68,3.0,5.0,100,0.04,,,1.04,Weather View 32 v70,2013-01-16 01:57:00,
2013-01-15 21:02:00,45.0,45.0,29.94,ENE,68,0.0,5.0,100,0.05,,,1.05,Weather View 32 v70,2013-01-16 02:02:00,
2013-01-15 21:07:00,45.0,45.0,29.94,NE,45,3.0,5.0,100,0.04,,,1.05,Weather View 32 v70,2013-01-16 02:07:00,
2013-01-15 21:12:00,45.0,45.0,29.94,SE,135,3.0,5.0,100,0.04,,,1.05,Weather View 32 v70,2013-01-16 02:12:00,
2013-01-15 21:17:00,45.0,45.0,29.94,NNE,22,1.0,5.0,100,0.04,,,1.05,Weather View 32 v70,2013-01-16 02:17:00,
2013-01-15 21:22:00,45.0,45.0,29.94,NNE,22,2.0,5.0,100,0.04,,,1.05,Weather View 32 v70,2013-01-16 02:22:00,
2013-01-15 21:27:00,45.0,45.0,29.94,NNE,22,3.0,5.0,100,0.03,,,1.05,Weather View 32 v70,2013-01-16 02:27:00,
2013-01-15 21:32:00,45.0,45.0,29.94,NNE,22,3.0,5.0,100,0.04,,,1.06,Weather View 32 v70,2013-01-16 02:32:00,
2013-01-15 21:37:00,44.0,44.0,29.94,NNE,22,3.0,5.0,100,0.05,,,1.07,Weather View 32 v70,2013-01-16 02:37:00,
2013-01-15 21:42:00,44.0,44.0,29.94,East,90,2.0,4.0,100,0.04,,,1.07,Weather View 32 v70,2013-01-16 02:42:00,
2013-01-15 21:47:00,44.0,44.0,29.94,ESE,112,1.0,4.0,100,0.04,,,1.07,Weather View 32 v70,2013-01-16 02:47:00,
2013-01-15 21:52:00,44.0,44.0,29.94,East,90,1.0,4.0,100,0.04,,,1.07,Weather View 32 v70,2013-01-16 02:52:00,
2013-01-15 21:57:00,44.0,44.0,29.94,ENE,68,1.0,4.0,100,0.03,,,1.07,Weather View 32 v70,2013-01-16 02:57:00,
2013-01-15 22:02:00,44.0,44.0,29.95,ESE,112,1.0,4.0,100,0.03,,,1.08,Weather View 32 v70,2013-01-16 03:02:00,
2013-01-15 22:07:00,44.0,44.0,29.95,SSE,158,0.0,4.0,100,0.04,,,1.09,Weather View 32 v70,2013-01-16 03:07:00,
2013-01-15 22:12:00,44.0,44.0,29.94,ESE,112,0.0,4.0,100,0.04,,,1.09,Weather View 32 v70,2013-01-16 03:12:00,
2013-01-15 22:17:00,44.0,44.0,29.94,ESE,112,0.0,4.0,100,0.04,,,1.09,Weather View 32 v70,2013-01-16 03:17:00,
2013-01-15 22:22:00,44.0,44.0,29.94,ESE,112,1.0,4.0,100,0.04,,,1.09,Weather View 32 v70,2013-01-16 03:22:00,
2013-01-15 22:27:00,44.0,44.0,29.94,East,90,0.0,4.0,100,0.05,,,1.10,Weather View 32 v70,2013-01-16 03:27:00,
2013-01-15 22:32:00,44.0,44.0,29.94,ESE,112,1.0,4.0,100,0.04,,,1.10,Weather View 32 v70,2013-01-16 03:32:00,
2013-01-15 22:37:00,44.0,44.0,29.94,ESE,112,2.0,4.0,100,0.03,,,1.10,Weather View 32 v70,2013-01-16 03:37:00,
2013-01-15 22:42:00,44.0,44.0,29.94,ESE,112,1.0,3.0,100,0.03,,,1.10,Weather View 32 v70,2013-01-16 03:42:00,
2013-01-15 22:47:00,44.0,44.0,29.94,ENE,68,0.0,3.0,100,0.03,,,1.10,Weather View 32 v70,2013-01-16 03:47:00,
2013-01-15 22:52:00,44.0,44.0,29.95,West,270,0.0,3.0,100,0.03,,,1.10,Weather View 32 v70,2013-01-16 03:52:00,
2013-01-15 22:57:00,44.0,44.0,29.94,ESE,112,0.0,3.0,100,0.04,,,1.11,Weather View 32 v70,2013-01-16 03:57:00,
2013-01-15 23:02:00,44.0,44.0,29.94,SE,135,0.0,3.0,100,0.03,,,1.11,Weather View 32 v70,2013-01-16 04:02:00,
2013-01-15 23:07:00,44.0,44.0,29.93,ESE,112,1.0,3.0,100,0.02,,,1.11,Weather View 32 v70,2013-01-16 04:07:00,
2013-01-15 23:12:00,44.0,44.0,29.94,East,90,0.0,3.0,100,0.03,,,1.12,Weather View 32 v70,2013-01-16 04:12:00,
2013-01-15 23:17:00,45.0,45.0,29.93,ESE,112,0.0,3.0,100,0.03,,,1.12,Weather View 32 v70,2013-01-16 04:17:00,
2013-01-15 23:22:00,44.0,44.0,29.93,SSW,202,0.0,3.0,100,0.03,,,1.12,Weather View 32 v70,2013-01-16 04:22:00,
2013-01-15 23:27:00,45.0,45.0,29.93,ENE,68,0.0,3.0,100,0.05,,,1.15,Weather View 32 v70,2013-01-16 04:27:00,
2013-01-15 23:32:00,45.0,45.0,29.93,SE,135,0.0,3.0,100,0.06,,,1.16,Weather View 32 v70,2013-01-16 04:32:00,
2013-01-15 23:37:00,45.0,45.0,29.93,NE,45,0.0,3.0,100,0.07,,,1.17,Weather View 32 v70,2013-01-16 04:37:00,
2013-01-15 23:42:00,45.0,45.0,29.93,NW,315,1.0,3.0,100,0.07,,,1.17,Weather View 32 v70,2013-01-16 04:42:00,
2013-01-15 23:47:00,45.0,45.0,29.93,ESE,112,0.0,3.0,100,0.07,,,1.17,Weather View 32 v70,2013-01-16 04:47:00,
2013-01-15 23:52:00,45.0,45.0,29.93,ESE,112,0.0,3.0,100,0.07,,,1.17,Weather View 32 v70,2013-01-16 04:52:00,
2013-01-15 23:57:00,45.0,45.0,29.93,SSE,158,0.0,3.0,100,0.06,,,1.17,Weather View 32 v70,2013-01-16 04:57:00,